Change the Weather History Date:

Tuesday, December 4, 2012

  Actual Average Record
Temperature  
Mean Temperature 62 °F 51 °F  
Max Temperature 74 °F 61 °F 85 °F (1977)
Min Temperature 49 °F 40 °F 19 °F (1897)
Degree Days  
Heating Degree Days 3 15  
Month to date heating degree days 3 57  
Since 1 July heating degree days 329 385  
Cooling Degree Days 0 0  
Month to date cooling degree days 23 0  
Year to date cooling degree days 3235 2792  
Growing Degree Days 10 (Base 50)    
Moisture  
Dew Point 46 °F    
Average Humidity 65    
Maximum Humidity 93    
Minimum Humidity 37    
Precipitation  
Precipitation 0.00 in 0.09 in 5.40 in (1913)
Month to date precipitation 0.00 0.34  
Year to date precipitation 31.53 32.28  
Snow  
Snow 0.00 in 0.00 in T in (2009)
Month to date snowfall 0.0 0.0  
Since 1 July snowfall 0.0 0.1  
Snow Depth 0.00 in    
Sea Level Pressure  
Sea Level Pressure 30.13 in    
Wind  
Wind Speed 10 mph (NW)    
Max Wind Speed 20 mph    
Max Gust Speed 25 mph    
Visibility 10 miles    
Events      
T = Trace of Precipitation, MM = Missing Value Source: NWS Daily Summary

Daily Weather History Graph

Daily Weather History Graph

Search for Another Location

Airport or City:

Trip Planner

Search our weather history database for the weather conditions in past years. The results will help you decide how hot, cold, wet, or windy it might be!

Date:

Astronomy

Dec. 04, 2012 Rise Set
Actual Time 7:13 AM CST 5:25 PM CST
Civil Twilight 6:46 AM CST 5:51 PM CST
Nautical Twilight 6:16 AM CST 6:21 PM CST
Astronomical Twilight 5:47 AM CST 6:51 PM CST
Moon 10:59 PM CST (12/4) 11:20 AM CST (12/4)
Length of Visible Light 11h 04m
Length of Day
10h 11m
Waning Gibbous, 69% of the Moon is Illuminated
Dec 4
Waning Gibbous
Dec 6
Last Quarter
Dec 13
New
Dec 19
First Quarter
Dec 28
Full

Hourly Weather History & Observations

Time (CST) Temp. Dew Point Humidity Pressure Visibility Wind Dir Wind Speed Gust Speed Precip Events Conditions
12:51 AM 63.0 °F 57.0 °F 81% 30.01 in 10.0 mi South 5.8 mph - N/A   Clear
1:51 AM 63.0 °F 59.0 °F 87% 30.01 in 10.0 mi SSW 8.1 mph - N/A   Clear
2:51 AM 61.0 °F 57.9 °F 90% 30.02 in 10.0 mi South 4.6 mph - N/A   Clear
3:51 AM 62.1 °F 59.0 °F 90% 30.02 in 10.0 mi South 8.1 mph - N/A   Mostly Cloudy
4:51 AM 61.0 °F 57.9 °F 90% 30.02 in 10.0 mi SW 6.9 mph - N/A   Mostly Cloudy
5:51 AM 60.1 °F 57.0 °F 90% 30.04 in 10.0 mi SSW 9.2 mph - N/A   Clear
6:51 AM 59.0 °F 57.0 °F 93% 30.07 in 10.0 mi West 6.9 mph - N/A   Clear
7:51 AM 57.0 °F 43.0 °F 59% 30.12 in 10.0 mi NW 12.7 mph - N/A   Partly Cloudy
8:51 AM 57.2 °F 42.8 °F 59% 30.16 in 10.0 mi NW 11.5 mph - N/A   Partly Cloudy
9:51 AM 61.0 °F 43.0 °F 52% 30.18 in 10.0 mi NW 10.4 mph - N/A   Clear
10:51 AM 66.0 °F 43.0 °F 43% 30.18 in 7.0 mi NNW 10.4 mph - N/A   Clear
11:51 AM 66.0 °F 44.1 °F 45% 30.16 in 10.0 mi NNW 12.7 mph - N/A   Clear
12:51 PM 70.0 °F 46.0 °F 42% 30.14 in 10.0 mi NNW 12.7 mph 21.9 mph N/A   Clear
1:51 PM 72.0 °F 46.0 °F 40% 30.12 in 10.0 mi NW 13.8 mph 23.0 mph N/A   Clear
2:51 PM 73.0 °F 48.0 °F 41% 30.12 in 10.0 mi North 16.1 mph 24.2 mph N/A   Clear
3:51 PM 73.9 °F 48.0 °F 40% 30.13 in 10.0 mi NNW 13.8 mph 20.7 mph N/A   Clear
4:51 PM 70.0 °F 46.0 °F 42% 30.14 in 10.0 mi North 16.1 mph - N/A   Clear
5:51 PM 66.0 °F 42.1 °F 42% 30.17 in 10.0 mi North 9.2 mph - N/A   Clear
6:51 PM 61.0 °F 41.0 °F 48% 30.18 in 10.0 mi North 3.5 mph - N/A   Clear
7:51 PM 59.0 °F 42.1 °F 53% 30.19 in 10.0 mi NW 8.1 mph - N/A   Clear
8:51 PM 59.0 °F 34.0 °F 39% 30.22 in 10.0 mi NNW 8.1 mph - N/A   Clear
9:51 PM 52.0 °F 33.1 °F 49% 30.23 in 10.0 mi NNW 6.9 mph - N/A   Clear
10:51 PM 48.2 °F 32.0 °F 54% 30.25 in 10.0 mi North 5.8 mph - N/A   Clear
11:51 PM 50.0 °F 28.9 °F 44% 30.25 in 10.0 mi North 9.2 mph - N/A   Clear